Dewpoint
-4 -4 -3 -3 -2 -1 -1 3 6 8 10 10 8 8 7 7 7 6 6 7 6 6 9 10 10 10 10 10 11 11 12 12 12 13 12 13 12 12 12 11 10 8 8 7 5 4 3 4 4 3 4 4 5 5 5 13 11 10 8 9 11 11 15
-3 -3 -3 -3 -2 -2 -2 1 4 6 9 11 11 10 8 7 7 6 6 7 6 7 8 9 9 10 10 11 12 12 12 12 13 13 12 13 13 12 12 11 10 9 8 7 6 5 5 5 4 4 4 4 4 3 6 5 4 4 7 7 7 8 9
-4 -3 -3 -2 -2 -1 -1 0 0 3 7 10 12 12 10 9 8 8 8 7 6 6 8 9 10 10 10 11 11 12 12 12 13 13 13 13 13 13 12 11 11 10 8 8 7 6 6 5 5 4 5 4 3 5 3 3 5 5 5 6 7 8 8
-5 -3 -4 -2 -2 -1 -1 -1 0 1 3 8 10 12 13 13 12 10 10 9 9 8 9 9 9 10 11 11 11 12 11 12 13 13 13 13 13 13 12 11 10 10 9 8 7 6 6 6 5 5 5 4 5 5 4 3 7 7 7 8 8 7 6
-5 -4 -3 -4 -3 -3 -3 -2 -2 -2 -2 -1 2 7 12 14 14 14 12 11 10 10 10 10 10 10 11 12 11 12 11 12 12 13 13 13 13 13 13 12 11 10 10 9 8 7 7 7 6 6 5 6 4 3 4 5 5 7 8 9 9 9 8
-4 -4 -5 -5 -5 -5 -5 -4 -3 -2 -2 -0 2 3 8 12 14 14 13 12 11 10 10 10 10 10 11 12 12 11 11 12 12 12 13 13 13 13 13 12 11 11 10 9 9 8 7 7 6 5 5 4 4 3 4 4 6 4 4 6 7 8 9
-5 -5 -5 -6 -6 -5 -4 -4 -3 -2 -1 0 2 3 6 9 12 11 14 13 12 11 11 11 11 11 11 12 12 12 12 12 12 13 12 13 13 13 13 12 12 11 10 9 9 9 7 7 8 6 6 5 5 4 4 4 3 3 4 3 5 7 8
-6 -6 -6 -6 -5 -5 -4 -3 -3 -3 -2 -1 2 4 5 7 12 13 13 13 13 12 12 11 11 11 12 12 13 13 13 13 12 13 12 13 13 13 13 12 12 11 10 10 9 8 8 7 7 7 6 6 4 4 4 5 4 4 5 6 4 5 6
-7 -7 -7 -8 -7 -7 -6 -6 -6 -5 -4 -0 3 5 7 8 11 12 11 12 13 12 12 12 11 11 12 13 14 14 15 15 15 13 12 13 14 13 13 12 12 11 10 9 9 8 9 8 7 7 6 6 5 5 5 6 5 4 4 6 6 7 7
-7 -7 -7 -8 -7 -7 -6 -5 -5 -1 9 11 6 7 9 9 9 11 12 13 12 12 11 11 11 11 13 14 15 16 16 16 16 17 14 13 13 13 13 12 11 10 10 10 9 8 8 8 7 7 6 6 5 5 6 5 5 4 5 3 3 7 7
-8 -8 -8 -8 -7 -7 -6 -5 -4 8 12 14 15 10 8 9 11 12 12 12 13 12 11 11 11 11 12 14 15 15 16 16 17 18 18 17 16 16 13 11 10 10 10 9 9 9 9 8 7 8 7 7 6 6 6 5 5 5 2 1 -0 0 6
-9 -9 -8 -8 -7 -7 -7 -7 3 11 13 14 15 14 8 9 10 11 11 13 13 13 12 12 11 11 12 13 14 15 15 16 17 17 17 18 18 18 19 17 12 10 10 10 9 9 9 9 8 8 8 7 7 6 6 5 5 4 3 2 1 3 1
-10 -10 -9 -8 -8 -8 -7 -6 6 11 13 14 15 15 13 8 10 11 11 12 12 13 13 12 11 11 12 12 15 15 14 14 15 17 17 17 17 18 19 19 19 17 12 11 10 9 9 9 9 8 8 8 7 8 5 4 3 3 4 5 4 5 5
-10 -10 -10 -9 -8 -8 -7 -6 5 11 14 13 10 14 13 8 10 10 11 12 13 12 13 13 12 11 11 12 13 14 14 14 14 14 15 15 15 16 17 17 19 19 18 15 11 10 9 11 11 9 10 9 11 7 5 5 4 3 2 3 6 8 8
-11 -11 -10 -9 -9 -8 -8 -7 9 12 8 10 13 15 14 9 10 11 12 13 14 14 14 13 12 12 11 12 12 12 14 13 13 12 12 13 13 14 14 15 15 16 17 17 15 12 11 12 12 11 11 9 10 9 9 8 6 6 7 9 9 6 3
-10 -11 -10 -9 -9 -8 -8 -6 9 6 5 12 13 14 7 7 8 8 10 11 12 13 14 13 12 11 11 11 11 13 17 16 12 12 11 11 11 11 12 12 15 17 18 18 17 16 13 13 12 15 10 10 9 9 8 7 8 8 9 10 8 8 1
-11 -10 -10 -9 -9 -8 -7 -6 3 9 11 11 13 12 5 6 7 8 10 11 13 13 13 13 12 11 11 11 11 13 17 18 16 10 10 9 9 9 10 10 12 16 18 20 21 21 20 19 19 19 19 18 18 12 10 5 5 8 9 8 7 8 6
-11 -10 -9 -9 -9 -8 -6 -5 2 8 11 12 13 11 6 7 8 9 10 11 12 13 13 13 14 13 11 11 11 16 17 17 15 11 9 8 8 7 7 8 10 10 12 17 19 19 19 20 21 20 19 19 19 19 16 8 7 6 8 7 8 7 3
-11 -11 -10 -9 -8 -5 -5 -5 0 8 10 11 11 8 6 7 8 8 9 11 11 12 12 12 14 14 12 11 12 17 17 17 15 12 10 9 8 6 6 7 8 9 9 10 11 11 15 18 19 19 17 17 18 18 19 11 10 10 9 7 8 10 7
-11 -11 -10 -8 -8 -7 -6 -5 -4 -1 10 10 11 13 6 7 7 8 9 10 10 10 10 11 11 13 16 17 16 17 17 17 16 12 11 11 9 7 6 8 8 9 9 9 10 10 12 16 18 19 18 17 17 17 17 16 13 13 11 10 10 10 8
-12 -11 -10 -9 -7 -6 -5 -4 -3 -1 9 10 11 12 11 6 7 8 9 9 10 9 9 9 10 11 14 16 16 17 16 17 16 15 12 10 9 9 10 11 8 9 10 9 9 10 10 11 13 15 17 17 16 16 16 18 17 16 14 13 12 11 10
-12 -11 -10 -9 -7 -6 -5 -3 -1 -2 6 9 10 11 12 7 7 9 9 9 8 8 8 8 9 9 12 15 17 16 17 16 15 15 13 11 15 15 14 11 9 9 9 9 8 8 9 9 10 12 13 17 17 16 17 17 18 18 17 16 15 13 11
-12 -11 -10 -9 -8 -6 -5 -3 -3 -0 -0 6 10 11 11 11 9 12 10 9 8 8 8 9 9 9 12 14 17 18 15 15 16 14 13 17 17 16 14 13 10 9 8 8 8 8 8 10 9 9 11 13 17 18 18 18 18 19 18 17 17 17 16
-11 -10 -9 -8 -8 -6 -5 -4 -3 0 2 2 9 11 11 11 11 11 9 10 9 8 9 8 8 9 14 16 16 15 15 15 14 13 15 15 15 14 14 13 11 9 8 8 8 7 7 9 9 9 9 11 13 16 18 18 19 19 19 18 18 18 17
-9 -9 -8 -8 -7 -7 -5 -4 -2 -1 1 4 5 10 11 10 10 9 9 7 9 10 9 10 14 14 15 15 15 15 14 13 13 15 15 14 14 14 13 13 11 9 8 8 7 7 7 9 9 9 9 11 13 14 16 14 14 18 19 19 19 18 18
-8 -8 -8 -7 -6 -5 -4 -2 -0 0 1 4 5 5 8 9 7 6 6 7 6 11 12 13 14 13 13 13 12 11 11 11 12 12 12 13 13 13 14 14 12 10 9 7 7 7 8 9 10 11 12 13 14 14 14 14 15 16 18 19 18 17 17
-8 -7 -7 -6 -4 -2 -1 1 2 2 1 1 1 1 2 2 2 4 5 3 3 6 11 11 11 12 12 12 12 11 12 12 12 11 11 11 12 13 14 14 13 11 10 9 8 9 9 10 11 13 15 14 14 14 14 15 16 16 17 18 18 16 16
-7 -6 -4 -2 -0 1 2 1 2 3 2 1 1 1 1 0 0 -0 -2 -0 2 3 9 11 12 12 11 10 10 10 9 9 9 10 11 12 12 13 14 16 16 14 12 12 11 11 11 13 14 14 15 15 15 15 16 17 17 17 17 18 18 16 15
-5 -2 1 2 2 2 1 2 3 5 9 5 7 3 1 0 0 -0 0 2 5 6 9 10 9 8 8 7 7 8 9 8 8 9 11 12 13 12 13 14 15 13 12 13 13 12 14 15 16 16 16 16 16 16 16 17 17 17 17 19 18 16 16
-4 0 2 2 2 3 3 4 8 12 12 10 10 11 10 9 9 8 3 4 6 7 8 8 7 7 7 7 7 7 9 9 10 10 11 11 13 14 13 14 15 15 13 14 15 15 15 16 17 16 16 16 16 16 16 17 18 17 18 18 17 16 17
6 7 4 2 2 4 6 8 11 13 12 10 11 11 10 9 11 13 12 9 6 5 6 7 6 6 6 7 8 8 8 9 10 11 11 11 12 14 14 14 15 15 16 15 15 16 16 17 17 16 16 15 15 16 16 17 18 18 18 18 18 17 17
1 4 -0 4 4 3 0 6 10 12 15 12 11 11 10 10 10 12 13 12 10 5 5 8 6 6 6 7 7 8 9 9 10 11 12 13 13 14 15 15 15 16 16 16 16 16 16 17 17 16 16 16 16 16 16 17 17 17 17 17 17 16 17
9 10 9 9 9 9 4 6 8 11 15 15 13 13 14 14 14 13 12 13 7 4 5 7 7 6 6 7 7 8 9 10 11 11 12 14 14 14 15 15 15 16 16 16 16 15 16 16 16 16 16 16 16 17 16 17 17 17 17 16 14 14 14
6 7 6 7 9 10 11 8 13 12 12 14 16 15 16 15 12 14 13 10 5 5 4 5 5 6 6 6 7 7 9 10 11 12 12 12 11 11 12 12 14 14 14 14 15 14 13 14 14 15 15 15 16 16 16 17 17 17 16 15 13 13 13
-12 -6 -3 -5 -1 3 5 9 10 11 12 13 13 13 12 10 1 1 2 4 5 5 4 5 5 6 6 6 6 6 8 8 9 9 8 8 8 9 10 11 11 11 10 10 11 11 11 11 12 12 12 13 12 12 13 13 14 15 15 15 14 14 13
-13 -10 -6 -4 -2 -2 2 4 7 8 10 12 12 11 5 -4 -3 -3 -2 -1 -0 1 2 3 3 4 4 5 5 5 5 5 5 5 6 7 7 7 7 8 8 8 8 8 8 8 8 9 9 9 8 9 9 9 9 9 11 11 12 14 15 15 14